Weather History for Brindisi, Italy

Change the Weather History Date:

Sunday, February 24, 2013

  Actual Average Record
Temperature  
Mean Temperature 56 °F -  
Max Temperature 62 °F 58 °F 68 °F (2001)
Min Temperature 50 °F 46 °F 32 °F (2009)
Degree Days  
Heating Degree Days 9    
Growing Degree Days 6 (Base 50)    
Moisture  
Dew Point 56 °F    
Average Humidity 95    
Maximum Humidity 100    
Minimum Humidity 88    
Precipitation  
Precipitation 0.03 in 0.09 in - ()
Sea Level Pressure  
Sea Level Pressure 29.77 in    
Wind  
Wind Speed 12 mph ()    
Max Wind Speed 25 mph    
Max Gust Speed 34 mph    
Visibility 5.0 miles    
Events Rain    
Averages and records for this station are not official NWS values.
T = Trace of Precipitation, MM = Missing Value Source: Averaged Metar Reports

Daily Weather History Graph

Daily Weather History Graph

Search for Another Location

Airport:

Trip Planner

Search our weather history database for the weather conditions in past years. The results will help you decide how hot, cold, wet, or windy it might be!

Date:

Astronomy

Feb. 24, 2013 Rise Set
Actual Time 6:29 AM CET 5:33 PM CET
Civil Twilight 6:02 AM CET 6:01 PM CET
Nautical Twilight 5:30 AM CET 6:33 PM CET
Astronomical Twilight 4:58 AM CET 7:04 PM CET
Moon 4:26 PM CET (2/24) 5:16 AM CET (2/24)
Length of Visible Light 11h 59m
Length of Day
11h 04m
Waxing Gibbous, 98% of the Moon is Illuminated
Feb 24
Waxing Gibbous
Feb 25
Full
Mar 4
Last Quarter
Mar 11
New
Mar 19
First Quarter

Hourly Weather History & Observations

Time (CET) Temp. Dew Point Humidity Pressure Visibility Wind Dir Wind Speed Gust Speed Precip Events Conditions
12:15 AM 57.2 °F 55.4 °F 94% 29.77 in 5.0 mi South 16.1 mph - N/A   Mostly Cloudy
12:45 AM 57.2 °F 57.2 °F 100% 29.77 in 5.0 mi South 11.5 mph - N/A   Mostly Cloudy
1:00 AM 58 °F 56 °F 93% 29.78 in 5 mi South 11.5 mph - -   Mist
1:15 AM 57.2 °F 57.2 °F 100% 29.77 in 5.0 mi South 13.8 mph - N/A   Mostly Cloudy
1:45 AM 57.2 °F 57.2 °F 100% 29.77 in 5.0 mi SSE 15.0 mph - N/A   Mostly Cloudy
2:15 AM 57.2 °F 57.2 °F 100% 29.77 in 5.0 mi South 15.0 mph - N/A   Mostly Cloudy
2:45 AM 57.2 °F 57.2 °F 100% 29.74 in 5.0 mi SSE 13.8 mph - N/A   Mostly Cloudy
3:15 AM 57.2 °F 57.2 °F 100% 29.74 in 5.0 mi SSE 12.7 mph - N/A   Mostly Cloudy
3:45 AM 57.2 °F 55.4 °F 94% 29.71 in 3.7 mi SSE 17.3 mph - N/A Rain Light Rain
4:15 AM 57.2 °F 57.2 °F 100% 29.71 in 3.7 mi SSE 18.4 mph - N/A Rain Light Rain
4:45 AM 57.2 °F 55.4 °F 94% 29.71 in 3.7 mi SSE 19.6 mph - N/A Rain Light Rain
5:15 AM 57.2 °F 55.4 °F 94% 29.71 in 3.7 mi SSE 18.4 mph - N/A Rain Light Rain
5:45 AM 57.2 °F 55.4 °F 94% 29.74 in 3.7 mi South 10.4 mph - N/A Rain Light Rain
6:15 AM 57.2 °F 55.4 °F 94% 29.74 in 3.7 mi SSW 8.1 mph - N/A Rain Light Rain
6:45 AM 53.6 °F 51.8 °F 94% 29.74 in 3.7 mi SW 3.5 mph - N/A Rain Light Rain
7:00 AM 54 °F 52 °F 90% 29.75 in 4 mi SW 3.5 mph - - Rain Light Rain
7:15 AM 53.6 °F 51.8 °F 94% 29.74 in 3.7 mi WSW 2.3 mph - N/A Rain Light Rain
7:45 AM 51.8 °F 50.0 °F 94% 29.74 in 5.0 mi West 4.6 mph - N/A Rain Light Rain
8:15 AM 53.6 °F 51.8 °F 94% 29.77 in 5.0 mi NW 1.2 mph - N/A Rain Light Rain
8:45 AM 53.6 °F 51.8 °F 94% 29.74 in 5.0 mi SSE 18.4 mph - N/A Rain Light Rain
9:15 AM 59.0 °F 57.2 °F 94% 29.74 in 5.0 mi South 13.8 mph - N/A Rain Light Rain
9:45 AM 60.8 °F 59.0 °F 94% 29.74 in 5.0 mi South 17.3 mph 29.9 mph N/A Rain Light Rain
10:15 AM 60.8 °F 59.0 °F 94% 29.74 in 5.0 mi South 19.6 mph 32.2 mph N/A Rain Light Rain
10:45 AM 60.8 °F 59.0 °F 94% 29.74 in 5.0 mi SSE 25.3 mph - N/A Rain Light Rain
11:15 AM 59.0 °F 57.2 °F 94% 29.74 in 5.0 mi SSE 24.2 mph - N/A Rain Light Rain
11:45 AM 60.8 °F 59.0 °F 94% 29.74 in 4.3 mi SE 20.7 mph - N/A   Scattered Clouds
12:15 PM 62.6 °F 60.8 °F 94% 29.71 in 4.3 mi SSE 23.0 mph - N/A   Scattered Clouds
12:45 PM 62.6 °F 59.0 °F 88% 29.74 in 3.7 mi South 21.9 mph 34.5 mph N/A Rain Light Rain
1:00 PM 62 °F 60 °F 90% 29.75 in 4 mi South 21.9 mph - - Rain Light Rain
1:15 PM 62.6 °F 60.8 °F 94% 29.71 in 3.7 mi SSE 19.6 mph - N/A Rain Light Rain
1:45 PM 62.6 °F 60.8 °F 94% 29.71 in 3.7 mi South 21.9 mph - N/A Rain Light Rain
2:15 PM 62.6 °F 60.8 °F 94% 29.71 in 3.7 mi South 18.4 mph - N/A Rain Light Rain
2:45 PM 62.6 °F 60.8 °F 94% 29.71 in 3.7 mi SSW 16.1 mph - N/A   Mostly Cloudy
3:15 PM 62.6 °F 60.8 °F 94% 29.71 in 3.7 mi SSW 17.3 mph - N/A   Mostly Cloudy
3:45 PM 62.6 °F 59.0 °F 88% 29.71 in 6.2 mi SW 10.4 mph - N/A   Scattered Clouds
4:15 PM 60.8 °F 57.2 °F 88% 29.71 in 6.2 mi SW 10.4 mph - N/A   Scattered Clouds
4:45 PM 59.0 °F 57.2 °F 94% 29.74 in 6.2 mi SSW 8.1 mph - N/A   Scattered Clouds
5:15 PM 59.0 °F 57.2 °F 94% 29.74 in 6.2 mi SSW 8.1 mph - N/A   Scattered Clouds
5:45 PM 59.0 °F 57.2 °F 94% 29.77 in 6.2 mi West 4.6 mph - N/A   Scattered Clouds
6:15 PM 59.0 °F 57.2 °F 94% 29.77 in 6.2 mi West 4.6 mph - N/A   Scattered Clouds
6:45 PM 55.4 °F 53.6 °F 94% 29.83 in 6.2 mi NNW 9.2 mph - N/A   Scattered Clouds
7:15 PM 53.6 °F 51.8 °F 94% 29.83 in 6.2 mi NNW 6.9 mph - N/A   Scattered Clouds
7:45 PM 53.6 °F 53.6 °F 100% 29.89 in 6.2 mi Calm Calm - N/A   Scattered Clouds
8:15 PM 53.6 °F 53.6 °F 100% 29.89 in 6.2 mi WSW 1.2 mph - N/A Rain Light Rain
8:45 PM 53.6 °F 51.8 °F 94% 29.89 in 6.2 mi West 2.3 mph - N/A   Scattered Clouds
9:15 PM 51.8 °F 51.8 °F 100% 29.89 in 6.2 mi West 2.3 mph - N/A   Scattered Clouds
9:45 PM 51.8 °F 50.0 °F 94% 29.92 in 6.2 mi WNW 5.8 mph - N/A   Scattered Clouds
10:15 PM 51.8 °F 50.0 °F 94% 29.92 in 6.2 mi WNW 5.8 mph - N/A   Scattered Clouds
10:45 PM 51.8 °F 50.0 °F 94% 29.95 in 6.2 mi NW 8.1 mph - N/A   Mostly Cloudy
11:15 PM 50.0 °F 48.2 °F 94% 29.95 in 6.2 mi NW 8.1 mph - N/A   Mostly Cloudy
11:45 PM 50.0 °F 48.2 °F 94% 29.98 in 6.2 mi NNW 3.5 mph - N/A   Mostly Cloudy